User: anonymous   Login
Location: Home
(42.5358°N, 72.7383°W)
Time: 05:03:13
(UTC-04:00)
Language:

DELTA 1 DEB - Orbit

View from above orbital plane
View from above orbital plane
View from above satellite
View from above satellite

Ground track
Ground track

The orbit data is extracted from the following two-line orbital elements,

1 42567U 72058KA  22173.14703678  .00000564  00000-0  11244-3 0  9997
2 42567  98.4864 247.1225 0121805 216.5955 142.6879 14.61704054457609
Epoch (UTC): 22 June 2022 03:31:43
Eccentricity: 0.0121805
inclination: 98.4864°
perigee height: 601 km
apogee height: 774 km
right ascension of ascending node: 247.1225°
argument of perigee: 216.5955°
revolutions per day: 14.61704054
mean anomaly at epoch: 142.6879°
orbit number at epoch: 45760

The dashed part of the orbit path shows where the satellite is in the earth's shadow,  

DLR